This demonstration page uses our WeatherBlox Daily Observations layout. Learn more.

Left ArrowRight Arrow

Hourly Observations for May 14, 2019

Temp ( °F °C ) Dew Point ( °F °C ) Humidity (%) Winds ( mph kmh ) Pressure ( in mb ) Visibility ( mi km ) Precip ( " mm )
12:15 am 00:15 Cloudy with Rain 62 16.5 55 12.8 79 79 S 12 19 29.84 1010 10 16 N/A
12:35 am 00:35 Partly Cloudy 62 16.7 55 12.5 76 76 S 6 9 29.83 1010 10 16 0.01 0.25
12:55 am 00:55 Clear 63 17.1 54 12.2 73 73 S 13 20 29.82 1010 10 16 0.01 0.25
1:15 am 01:15 Clear 62 16.4 54 12.1 76 76 SSW 8 13 29.83 1010 10 16 N/A
1:35 am 01:35 Clear 60 15.5 54 12.1 80 80 SSW 7 11 29.83 1010 10 16 N/A
1:55 am 01:55 Clear 60 15.7 55 12.5 81 81 S 9 15 29.82 1010 10 16 N/A
2:15 am 02:15 Clear 59 14.9 54 12.3 85 85 SSW 8 13 29.83 1010 10 16 N/A
2:35 am 02:35 Clear 58 14.5 55 12.5 88 88 S 7 11 29.83 1010 10 16 N/A
2:55 am 02:55 Clear 58 14.4 54 12.3 87 87 S 8 13 29.82 1010 10 16 N/A
3:15 am 03:15 Clear 58 14.7 55 12.7 88 88 S 12 19 29.82 1010 10 16 N/A
3:35 am 03:35 Clear 59 14.8 55 13 89 89 S 14 22 29.82 1010 10 16 N/A
3:55 am 03:55 Clear 59 14.8 56 13.2 90 90 SSW 9 15 29.82 1010 10 16 N/A
4:15 am 04:15 Clear 58 14.5 55 13 91 91 SSW 10 17 29.82 1010 10 16 N/A
4:35 am 04:35 Clear 58 14.5 55 13 91 91 SSW 9 15 29.82 1010 10 16 N/A
4:55 am 04:55 Clear 57 14 55 12.7 92 92 SSW 6 9 29.83 1010 10 16 N/A
5:15 am 05:15 Clear 56 13.2 55 12.5 96 96 SSW 6 9 29.83 1010 10 16 N/A
5:35 am 05:35 Clear 56 13.2 55 12.5 96 96 SSW 6 9 29.84 1011 10 16 N/A
5:55 am 05:55 Clear 55 13 55 12.5 97 97 N N/A 29.86 1011 10 16 N/A
6:15 am 06:15 Clear 56 13.1 55 12.6 97 97 SW 3 6 29.85 1011 10 16 N/A
6:35 am 06:35 Sunny 54 12.2 53 11.9 98 98 WSW 3 6 29.86 1011 10 16 N/A
6:55 am 06:55 Sunny 54 12 53 11.9 99 99 W 5 7 29.88 1012 10 16 N/A
7:15 am 07:15 Sunny 54 12.2 54 12.1 99 99 WSW 3 6 29.87 1012 10 16 N/A
7:35 am 07:35 Sunny 58 14.4 57 13.7 96 96 W 6 9 29.85 1011 10 16 N/A
7:55 am 07:55 Sunny 60 15.4 57 14.1 92 92 W 7 11 29.86 1011 10 16 N/A
8:15 am 08:15 Sunny 61 16.3 58 14.2 87 87 W 7 11 29.85 1011 10 16 N/A
8:35 am 08:35 Sunny 63 17.1 58 14.6 85 85 W 8 13 29.84 1011 10 16 N/A
8:55 am 08:55 Sunny 65 18.2 59 15 82 82 WNW 8 13 29.83 1010 10 16 N/A
9:15 am 09:15 Sunny 68 19.9 60 15.3 75 75 W 10 17 29.82 1010 10 16 N/A
9:35 am 09:35 Sunny 70 20.9 59 15.2 70 70 W 12 19 29.81 1009 10 16 N/A
9:55 am 09:55 Sunny 71 21.8 59 15.2 66 66 W 13 20 29.80 1009 10 16 N/A
10:15 am 10:15 Sunny 73 22.6 58 14.4 60 60 WNW 9 15 29.80 1009 10 16 N/A
10:35 am 10:35 Sunny 73 23 57 13.7 56 56 WNW 9 15 29.79 1009 10 16 N/A
10:55 am 10:55 Sunny 74 23.5 55 12.9 51 51 WNW 9 15 29.79 1009 10 16 N/A
11:15 am 11:15 Sunny 75 24.1 55 12.9 50 50 WNW 8 13 29.78 1009 10 16 N/A
11:35 am 11:35 Sunny 76 24.7 55 13 48 48 NW 6 9 29.78 1008 10 16 N/A
11:55 am 11:55 Sunny 77 25.1 54 12.3 45 45 NNW 7 11 29.79 1009 10 16 N/A
12:15 pm 12:15 Sunny 79 25.9 52 11.2 40 40 N 9 15 29.78 1008 10 16 N/A
12:35 pm 12:35 Sunny 79 26 53 11.8 41 41 N 10 17 29.79 1009 10 16 N/A
12:55 pm 12:55 Sunny 80 26.5 53 11.4 39 39 N 8 13 29.78 1008 10 16 N/A
1:15 pm 13:15 Sunny 81 27 55 12.6 41 41 NNE 10 17 29.77 1008 10 16 N/A
1:35 pm 13:35 Sunny 82 27.5 51 10.7 35 35 N 13 20 29.76 1008 10 16 N/A
1:55 pm 13:55 Sunny 81 27.4 52 11.2 36 36 NE 9 15 29.76 1008 10 16 N/A
2:15 pm 14:15 Sunny 82 27.7 51 10.8 35 35 N 14 22 29.76 1008 10 16 N/A
2:35 pm 14:35 Sunny 83 28.1 48 8.8 30 30 N 10 17 29.75 1008 10 16 N/A
2:55 pm 14:55 Sunny 83 28.3 46 7.7 27 27 N 14 22 29.75 1007 10 16 N/A
3:15 pm 15:15 Sunny 83 28.1 49 9.3 31 31 NE 7 11 29.75 1008 10 16 N/A
3:35 pm 15:35 Sunny 84 28.7 49 9.2 30 30 N 9 15 29.75 1007 10 16 N/A
3:55 pm 15:55 Sunny 83 28.1 49 9.3 31 31 NNE 5 7 29.74 1007 10 16 N/A
4:15 pm 16:15 Sunny 84 28.8 46 7.9 27 27 N 8 13 29.73 1007 10 16 N/A
4:35 pm 16:35 Sunny 83 28.5 46 7.5 27 27 NE 8 13 29.73 1007 10 16 N/A
4:55 pm 16:55 Sunny 84 28.8 46 7.5 26 26 N 9 15 29.73 1007 10 16 N/A
5:15 pm 17:15 Sunny 83 28.6 49 9.3 30 30 NE 10 17 29.72 1006 10 16 N/A
5:35 pm 17:35 Sunny 83 28.3 49 9.3 30 30 NE 10 17 29.72 1006 10 16 N/A
5:55 pm 17:55 Sunny 83 28.4 50 9.8 31 31 NE 7 11 29.72 1006 10 16 N/A
6:15 pm 18:15 Sunny 83 28.3 49 9.4 31 31 NNE 8 13 29.73 1007 10 16 N/A
6:35 pm 18:35 Sunny 82 27.5 51 10.5 35 35 E 12 19 29.74 1007 10 16 N/A
6:55 pm 18:55 Sunny 81 27.2 50 10 34 34 NE 10 17 29.75 1007 10 16 N/A
7:15 pm 19:15 Sunny 80 26.8 50 10 35 35 ENE 13 20 29.75 1008 10 16 N/A
7:35 pm 19:35 Sunny 79 26.3 48 9 34 34 ENE 13 20 29.76 1008 10 16 N/A
7:55 pm 19:55 Sunny 78 25.5 48 8.8 35 35 ENE 9 15 29.77 1008 10 16 N/A
8:15 pm 20:15 Sunny 74 23.2 47 8.5 39 39 ENE 8 13 29.79 1009 10 16 N/A
8:35 pm 20:35 Sunny 72 22.2 49 9.5 45 45 E 8 13 29.81 1009 10 16 N/A
8:55 pm 20:55 Clear 72 22 50 10.2 47 47 E 10 17 29.81 1010 10 16 N/A
9:15 pm 21:15 Clear 69 20.8 51 10.6 52 52 E 9 15 29.82 1010 10 16 N/A
9:35 pm 21:35 Clear 69 20.5 50 10.2 52 52 E 10 17 29.83 1010 10 16 N/A
9:55 pm 21:55 Clear 67 19.4 51 10.3 56 56 E 9 15 29.84 1011 10 16 N/A
10:15 pm 22:15 Clear 67 19.7 50 10 54 54 E 9 15 29.85 1011 10 16 N/A
10:35 pm 22:35 Clear 67 19.5 50 10 54 54 E 12 19 29.85 1011 10 16 N/A
10:55 pm 22:55 Clear 64 18 50 10.1 60 60 E 8 13 29.86 1011 10 16 N/A
11:15 pm 23:15 Clear 64 17.6 50 10.1 62 62 ESE 8 13 29.87 1011 10 16 N/A
11:35 pm 23:35 Clear 61 16 50 10 68 68 ESE 8 13 29.88 1012 10 16 N/A
11:55 pm 23:55 Clear 60 15.8 51 10.5 71 71 ESE 7 11 29.88 1012 10 16 N/A

Powered by AerisWeather